Regional Weather Roundup
Issued by NWS

Home | Current Version | Previous Version | Text Only | Print | Product List | Glossary On
Versions: 1 2 3 4 5 6 7 8 9 10 11 12 13 14 15 16 17 18 19 20 21 22 23 24 25 26 27 28 29 30 31 32 33 34 35 36 37 38 39 40 41 42 43 44 45 46 47 48 49 50
000
ASUS43 KDTX 211510
RWRMI
MICHIGAN HOURLY REGIONAL WEATHER ROUNDUP
NATIONAL WEATHER SERVICE DETROIT/PONTIAC MI
1100 AM EDT SAT OCT 21 2017

NOTE: "FAIR" INDICATES FEW OR NO CLOUDS BELOW 12,000 FEET WITH NO
SIGNIFICANT WEATHER AND/OR OBSTRUCTION TO VISIBILITY.

MIZ047>049-052>055-059>063-066>070-074>076-081>083-211600-
SOUTHEAST LOWER MICHIGAN

CITY           SKY/WX    TMP DP  RH WIND       PRES   REMARKS
ADRIAN         SUNNY     61  53  75 SW6       30.23S
ALMA           SUNNY     64  51  62 S9G22     30.16S
ANN ARBOR      SUNNY     60  53  77 S6        30.21F
BAD AXE        CLOUDY    60  51  72 S10       30.19S
CARO           PTSUNNY   65  51  61 S9        30.17S
DETROIT CITY   SUNNY     64  55  72 S9        30.22F
DETROIT        PTSUNNY   64  55  72 S8        30.23F
FLINT          MOSUNNY   66  51  58 SW12      30.19S
GROSSE ILE     SUNNY     61  55  79 S7        30.23S
HILLSDALE      SUNNY     63  50  63 S8        30.21R
HOWELL         SUNNY     64  53  67 S6        30.20F

CITY           SKY/WX    TMP DP  RH WIND       PRES   REMARKS
JACKSON        SUNNY     65  52  62 S9        30.20S
LAMBERTVILLE   SUNNY     66  53  61 S5        30.22F
LANSING        SUNNY     67  50  54 S10       30.18F
LAPEER         FAIR      67  52  58 SW6       30.20S
MASON          SUNNY     66  52  60 CALM      30.19S
MONROE         SUNNY     65  53  63 S5        30.22S
MT. CLEMENS    PTSUNNY   64  58  81 S8        30.21S
PONTIAC        PTSUNNY   62  52  69 S7        30.21S
PORT HOPE        N/A     64  51  62 CALM      30.16S
PORT HURON     MOSUNNY   64  55  72 S6        30.22S
TRI CITIES     MOSUNNY   64  52  64 S12       30.16F
MIDLAND        FAIR      66  51  57 S9        30.14F
TROY           MOSUNNY   64  53  68 S3        30.23F
SAGINAW HB     MOSUNNY   64  52  63 S10       30.16S
$$
MIZ043>046-050>051-056>058-064>065-071>073-077>080-211600-
SOUTHWEST LOWER MICHIGAN

CITY           SKY/WX    TMP DP  RH WIND       PRES   REMARKS
BATTLE CREEK   MOSUNNY   66  51  58 S12       30.17F
BENTON HARBOR  MOSUNNY   65  49  56 S7        30.13S
BIG RAPIDS     PTSUNNY   62  49  62 S6        30.11F
COLDWATER      MOSUNNY   64  50  58 S5        30.19S
FREMONT        FAIR      64  49  58 S13       30.11R
HOLLAND        PTSUNNY   65  50  58 S16G22    30.12F
GRAND RAPIDS   PTSUNNY   67  51  56 S10       30.14S
IONIA          FAIR      65  49  55 S13       30.15S
KALAMAZOO      PTSUNNY   64  49  57 S12       30.18S
LUDINGTON      CLOUDY    62  51  67 SE6       30.05F
MARSHALL       MOSUNNY   64  51  64 S8        30.18S
MOUNT PLEASANT MOSUNNY   66  50  56 S9        30.14R
MUSKEGON       CLOUDY    67  48  50 S16G23    30.09F
SOUTH HAVEN    CLOUDY    67  48  50 S10G16    30.12F
$$
MIZ016>042-211600-
NORTHERN LOWER MICHIGAN

CITY           SKY/WX    TMP DP  RH WIND       PRES   REMARKS
ALPENA         CLOUDY    62  53  72 S8        30.12R
BEAVER ISLAND  PTSUNNY   66  50  55 S15G21    30.01S
BELLAIRE       CLOUDY    65  47  52 S12       30.06S
CADILLAC       CLOUDY    62  47  58 S9        30.10R
CHARLEVOIX     CLOUDY    65  47  52 S9        30.06F
FRANKFORT      MOSUNNY   68  51  53 S7        30.04S
GAYLORD        PTSUNNY   59  47  64 S12       30.09F
GRAYLING       CLOUDY    60  47  62 S8        30.11S
HARBOR SPRINGS PTSUNNY   66  45  47 SW5       30.04F
HOUGHTON LAKE  CLOUDY    59  49  69 S7        30.12F
MANISTEE       PTSUNNY   62  51  67 VRB7      30.05S
OSCODA         MOSUNNY   63  55  76 SW10      30.14S
PELLSTON       CLOUDY    68  45  43 S9        30.04S
ROGERS CITY    MOSUNNY   62  50  65 SW14G20   30.08S
TRAVERSE CITY  MOSUNNY   69  48  47 S9        30.03F
$$
MIZ007>008-015-211600-
EASTERN UPPER MICHIGAN

CITY           SKY/WX    TMP DP  RH WIND       PRES   REMARKS
KINROSS        MOSUNNY   60  51  72 SE9       30.03F
MACKINAC ISLAN CLOUDY    64  46  52 S8        30.03S
NEWBERRY       MOSUNNY   63  53  70 S16G24    29.99S
S. S. MARIE    CLOUDY    58  53  84 E8        30.03F
MUNISING         N/A     66  54  65 S12G20    29.92F
$$
MIZ004>006-011>014-085-211600-
CENTRAL UPPER MICHIGAN

CITY           SKY/WX    TMP DP  RH WIND       PRES   REMARKS
MANISTIQUE     CLOUDY    62  55  79 S9G17     29.99R
ESCANABA       MOSUNNY   61  54  77 S13       29.96R
MENOMINEE      CLOUDY    63  52  67 S9        29.96F
SAWYER-GWINN   SUNNY     59  50  72 S16G22    29.92S
$$
MIZ001>003-009>011-084-211600-
WESTERN UPPER MICHIGAN

CITY           SKY/WX    TMP DP  RH WIND       PRES   REMARKS
IRON MOUNTAIN  MOSUNNY   63  48  58 S12G20    29.91S
HOUGHTON       CLOUDY    64  46  52 S12       29.82S
COPPER HARBOR    N/A     65  48  54 SW12G23   29.81R
IRONWOOD       PTSUNNY   64  51  62 S18G30    29.80R
$$

ABBREVIATIONS USED IN REMARKS
   TC - TEMPERATURE IN CELSIUS
  WCI - WIND CHILL INDEX
   HX - HEAT INDEX
  VSB - VISIBILITY





USA.gov is the U.S. government's official web portal to all federal, state and local government web resources and services.